User: anonymous   Login
Location: Unspecified
(0.0000°N, 0.0000°E)
Time: 18:06:31
(UTC+00:00)
Language:

CELTEE 1 - Orbit

View from above orbital plane
View from above orbital plane
View from above satellite
View from above satellite

Ground track
Ground track

The orbit is defined by the following mean orbital elements,

1 41850U          26145.35720874 +.00000000 +00000-0 +24079-3 0 00000
2 41850  98.0706  10.3681 0001133  55.0631 305.0708 15.19419219    02
Epoch (UTC): 25 May 2026 08:34:22
Eccentricity: 0.0001133
inclination: 98.0706°
perigee height: 507 km
apogee height: 508 km
right ascension of ascending node: 10.3681°
argument of perigee: 55.0631°
revolutions per day: 15.19419219
mean anomaly at epoch: 305.0708°

The dashed part of the orbit path shows where the satellite is in the earth's shadow,  

DLR